Location: Diebersbach
(48.5163°N, 8.0558°E)
Time: 04:47:23
(UTC+00:00)

USA 229 - Pass Details

Date: 27 October 2021
Orbit: 946 x 1266 km, 63.4° (Epoch: 25 November)

Event Time Altitude Azimuth Distance (km) Brightness Sun altitude
Rises 20:45:06 0° 282° (WNW) 3,747 7.2 -43.4°
Reaches altitude 10° 20:48:11 10° 296° (WNW) 2,845 6.5 -43.8°
Enters shadow 20:52:29 24° 335° (NNW) 2,068 5.5 -44.4°
